This is the latest recevied weather packets stored in our database for station/object OE6ACM-10. If no packets are shown the sender has not sent any weather packets the latest 10 day(s).
| Time | Temp. | Humidity | Pressure | Rain* | Wind** | Luminosity | Snow |
|---|---|---|---|---|---|---|---|
| 1778163795 | 26.67° C | 100% | 922.6 hPa | - | - | - | - |
| 1778163495 | 27.78° C | 100% | 922.3 hPa | - | - | - | - |
| 1778163195 | 29.44° C | 100% | 922.2 hPa | - | - | - | - |
| 1778162895 | 26.67° C | 100% | 922.3 hPa | - | - | - | - |
| 1778162595 | 26.67° C | 100% | 922.3 hPa | - | - | - | - |
| 1778162295 | 26.67° C | 100% | 922.4 hPa | - | - | - | - |
| 1778161995 | 26.67° C | 100% | 922.3 hPa | - | - | - | - |
| 1778161695 | 26.67° C | 100% | 922.2 hPa | - | - | - | - |
| 1778161395 | 27.22° C | 100% | 922.3 hPa | - | - | - | - |
| 1778161095 | 27.22° C | 100% | 922 hPa | - | - | - | - |
| 1778160795 | 26.67° C | 100% | 922.1 hPa | - | - | - | - |
| 1778160495 | 26.67° C | 100% | 922.2 hPa | - | - | - | - |
| 1778160195 | 25.56° C | 100% | 922.3 hPa | - | - | - | - |
| 1778159895 | 25.56° C | 100% | 922.1 hPa | - | - | - | - |
| 1778159595 | 27.22° C | 100% | 921.8 hPa | - | - | - | - |
| 1778159295 | 28.89° C | 100% | 921.6 hPa | - | - | - | - |
| 1778158995 | 30.56° C | 93% | 921.5 hPa | - | - | - | - |
| 1778158695 | 31.67° C | 92% | 921.6 hPa | - | - | - | - |
| 1778158395 | 31.67° C | 87% | 921.5 hPa | - | - | - | - |
| 1778158095 | 33.33° C | 93% | 921.6 hPa | - | - | - | - |
| 1778157795 | 32.78° C | 90% | 921.6 hPa | - | - | - | - |
| 1778157495 | 32.22° C | 100% | 921.6 hPa | - | - | - | - |
| 1778157195 | 31.11° C | 99% | 921.6 hPa | - | - | - | - |
| 1778156895 | 31.11° C | 100% | 921.6 hPa | - | - | - | - |
| 1778156595 | 31.11° C | 100% | 921.7 hPa | - | - | - | - |
* Rain since midnight (hover to see other rain measurements)
** Current wind speed in m/s (hover to see current wind gust speed)